User: anonymous   Login
Location: Buchberg
(46.9333°N, 15.8500°E)
Time: 21:53:38
(UTC+00:00)
Language:

ERS-2 - Orbit

View from above orbital plane
View from above orbital plane
View from above satellite
View from above satellite

Ground track
Ground track

The orbit data is extracted from the following two-line orbital elements,

1 23560U 95021A   20275.51708344 +.00001029 +00000-0 +47164-4 0  9999
2 23560 098.5529 083.6111 0003828 152.8002 207.3433 15.23316150358268
Epoch (UTC): 01 October 2020 12:24:36
Eccentricity: 0.0003828
inclination: 98.5529°
perigee height: 493 km
apogee height: 498 km
right ascension of ascending node: 83.6111°
argument of perigee: 152.8002°
revolutions per day: 15.23316150
mean anomaly at epoch: 207.3433°
orbit number at epoch: 35826

The dashed part of the orbit path shows where the satellite is in the earth's shadow,  

DLR